User: anonymous   Login
Location: Caltech
(34.1382°N, 118.1253°W)
Time: 23:49:28
(UTC-07:00)
Language:

Iridium 95 - Orbit

View from above orbital plane
View from above orbital plane
View from above satellite
View from above satellite

Ground track
Ground track

The orbit data is extracted from the following two-line orbital elements,

1 27375U 02005D   16270.47026442  .00000149  00000-0  46140-4 0  9999
2 27375  86.3993  37.8375 0002074  97.5073 262.6358 14.34216197773110
Epoch (UTC): 26 September 2016 11:17:10
Eccentricity: 0.0002074
inclination: 86.3993°
perigee height: 776 km
apogee height: 779 km
right ascension of ascending node: 37.8375°
argument of perigee: 97.5073°
revolutions per day: 14.34216197
mean anomaly at epoch: 262.6358°
orbit number at epoch: 77311

The dashed part of the orbit path shows where the satellite is in the earth's shadow,  

DLR